Regional Weather Roundup
Issued by NWS Little Rock, AR

Home | Current Version | Previous Version | Graphics & Text | Print | Product List | Glossary On
Versions: 1 2 3 4 5 6 7 8 9 10 11 12 13 14 15 16 17 18 19 20 21 22 23 24 25 26 27 28 29 30 31 32
000
ASUS44 KLZK 181812
RWRLZK

WEATHER ROUNDUP FOR ARKANSAS
NATIONAL WEATHER SERVICE LITTLE ROCK AR
100 PM CDT FRI AUG 18 2017

NOTE: "FAIR" INDICATES FEW OR NO CLOUDS BELOW 12,000 FEET WITH NO
SIGNIFICANT WEATHER AND/OR OBSTRUCTIONS TO VISIBILITY.

ARZ001-003-010-029-181900-
NORTHWEST ARKANSAS

CITY           SKY/WX    TMP DP  RH WIND       PRES   REMARKS
FAYETTEVILLE   SUNNY     86  72  62 SW8       30.02F HX  92
6HR MIN TEMP:  67; 6HR MAX TEMP:  86;

FORT SMITH     MOSUNNY   90  71  53 S9        29.99F HX  96
6HR MIN TEMP:  72; 6HR MAX TEMP:  90;

HARRISON       SUNNY     87  66  49 NW3       30.04F HX  89
6HR MIN TEMP:  66; 6HR MAX TEMP:  87;

BENTONVILLE    MOSUNNY   84  72  65 SW8       30.04F HX  89
6HR MIN TEMP:  72; 6HR MAX TEMP:  86;

ROGERS         MOSUNNY   86  72  62 SW7       30.04F HX  92
6HR MIN TEMP:  70; 6HR MAX TEMP:  87;

SILOAM SPGS    CLOUDY    86  72  62 S8        30.01F HX  92
6HR MIN TEMP:  72; 6HR MAX TEMP:  88;

HIGHFILL       PTSUNNY   85  73  67 SW6       30.03F HX  91
6HR MIN TEMP:  70; 6HR MAX TEMP:  86;

SPRINGDALE     MOSUNNY   86  72  62 SW7       30.04F HX  92
$$

ARZ004-005-016-181900-
NORTH CENTRAL ARKANSAS

CITY           SKY/WX    TMP DP  RH WIND       PRES   REMARKS
BATESVILLE     SUNNY     88  70  55 SW5       30.01F HX  92
6HR MIN TEMP:  70; 6HR MAX TEMP:  88;

FLIPPIN        SUNNY     86  64  48 SW3       30.00F HX  87
6HR MIN TEMP:  63; 6HR MAX TEMP:  86;

MTN HOME       MOSUNNY   85  70  60 CALM      30.02  HX  89
6HR MIN TEMP:  67; 6HR MAX TEMP:  85;

$$

ARZ040-041-181900-
WEST CENTRAL ARKANSAS

CITY           SKY/WX    TMP DP  RH WIND       PRES   REMARKS
MENA           SUNNY     90  77  66 W5        30.04F HX 102
MOUNT IDA      SUNNY     89  65  44 CALM      30.01F HX  91
6HR MIN TEMP:  68; 6HR MAX TEMP:  89;

$$

ARZ009-017-025-026-028-181900-
NORTHEAST ARKANSAS

CITY           SKY/WX    TMP DP  RH WIND       PRES   REMARKS
CORNING        FAIR      86  68  54 SW5       30.01S HX  89
JONESBORO      SUNNY     88  66  48 CALM      30.00F HX  90
6HR MIN TEMP:  70; 6HR MAX TEMP:  88;

NEWPORT        MOSUNNY   86  72  62 VRB5      30.01F HX  92
6HR MIN TEMP:  70; 6HR MAX TEMP:  87;

WALNUT RIDGE   SUNNY     88  63  42 S5        30.00F HX  88
6HR MIN TEMP:  66; 6HR MAX TEMP:  88;

BLYTHEVILLE    SUNNY     86  69  56 NW7       30.01F HX  90
6HR MIN TEMP:  69; 6HR MAX TEMP:  88;

$$

ARZ022-023-033-042-044-181900-
CENTRAL ARKANSAS

CITY           SKY/WX    TMP DP  RH WIND       PRES   REMARKS
LITTLE ROCK    PTSUNNY   89  73  59 SW7       30.01F HX  97
6HR MIN TEMP:  71; 6HR MAX TEMP:  89;

N LITTLE ROCK    N/A     88  72  58 SW3       30.01F HX  94
6HR MIN TEMP:  72; 6HR MAX TEMP:  88;

JACKSONVILLE   MOSUNNY   89  72  57 W7        30.00F HX  96
6HR MIN TEMP:  71; 6HR MAX TEMP:  90;

CONWAY           N/A     90  72  55 CALM      29.99F HX  96
SEARCY         MOSUNNY   89  76  65 S7        30.02F HX 100
HOT SPRINGS    SUNNY     89  73  59 S3        30.01F HX  97
6HR MIN TEMP:  72; 6HR MAX TEMP:  90;

RUSSELLVILLE   SUNNY     88  73  61 VRB3      30.00F HX  95
6HR MIN TEMP:  70; 6HR MAX TEMP:  88;

CLINTON        FAIR      88  72  58 SW7       30.00F HX  94
$$

ARZ036-181900-
EAST ARKANSAS

CITY           SKY/WX    TMP DP  RH WIND       PRES   REMARKS
WEST MEMPHIS   SUNNY     86  71  60 N5        30.00F HX  91
6HR MIN TEMP:  71; 6HR MAX TEMP:  87;

$$

ARZ050-053-066-070-073-181900-
SOUTHWEST ARKANSAS

CITY           SKY/WX    TMP DP  RH WIND       PRES   REMARKS
ARKADELPHIA    MOCLDY    89  77  67 CALM      30.01F HX 101
6HR MIN TEMP:  71; 6HR MAX TEMP:  89;

CAMDEN         MOSUNNY   91  75  59 CALM      30.00F HX 102
TEXARKANA      PTSUNNY   88  78  72 SW8       30.02F HX 101
6HR MIN TEMP:  74; 6HR MAX TEMP:  88;

EL DORADO      PTSUNNY   90  77  65 W8        30.02F HX 103
6HR MIN TEMP:  74; 6HR MAX TEMP:  91;

DE QUEEN       MOSUNNY   89  79  72 W3        30.00F HX 104
6HR MIN TEMP:  73; 6HR MAX TEMP:  90;

$$

ARZ056-057-069-181900-
SOUTHEAST ARKANSAS

CITY           SKY/WX    TMP DP  RH WIND       PRES   REMARKS
PINE BLUFF     MOSUNNY   89  75  63 W9        30.01F HX  99
6HR MIN TEMP:  72; 6HR MAX TEMP:  90;

MONTICELLO     PTSUNNY   90  76  63 SW8       30.01F HX 101
6HR MIN TEMP:  75; 6HR MAX TEMP:  90;


$$






USA.gov is the U.S. government's official web portal to all federal, state and local government web resources and services.